Regional Weather Roundup
Issued by NWS Memphis, TN

Home | Current Version | Previous Version | Text Only | Print | Product List | Glossary On
Versions: 1 2 3 4 5 6 7 8 9 10 11 12 13 14 15 16 17 18 19 20 21 22 23 24 25 26 27 28 29 30 31 32 33 34 35 36 37 38 39 40 41 42 43 44 45 46 47 48 49 50
000
ASUS44 KMEG 250800
RWRMEG
MEMPHIS CWA HOURLY WEATHER ROUNDUP
NATIONAL WEATHER SERVICE MEMPHIS TN
300 AM CDT FRI APR 25 2014

...WEST TENNESSEE...

CITY           SKY/WX    TMP DP  RH WIND       PRES   REMARKS
MEMPHIS INTL   CLOUDY    62  55  77 W10G18    29.80R
NWS MEMPHIS      N/A     62 N/A N/A MISG        N/A
JACKSON        MOCLDY    63  56  78 W20G26    29.74R
LEXINGTON      CLOUDY    64  61  88 SW12      29.71R
DYERSBURG      CLOUDY    61  48  63 W10G21    29.77R
UNION CITY     CLOUDY    59  55  88 NW14      29.72R


...EASTERN ARKANSAS...

CITY           SKY/WX    TMP DP  RH WIND       PRES   REMARKS
JONESBORO      CLOUDY    60  53  77 W8        29.79R
WEST MEMPHIS   CLOUDY    61  56  83 W8G17     29.79R
BATESVILLE     PTCLDY    57  48  72 NW7G17    29.83R
WALNUT RIDGE   MOCLDY    59  52  77 NW15G21   29.79R
BLYTHEVILLE    MOCLDY    60  55  83 NW12      29.77R
SEARCY         CLEAR     58  50  75 W7        29.86R
STUTTGART      CLEAR     57  52  82 W10       29.86R
PINE BLUFF     CLEAR     56  51  84 W6        29.89R
MONTICELLO     LGT RAIN  57  52  83 W6        29.88R


...NORTH MISSISSIPPI...

CITY           SKY/WX    TMP DP  RH WIND       PRES   REMARKS
TUPELO         PTCLDY    65  57  75 W10       29.79R
TUNICA         MOCLDY    61  55  82 W10       29.83R
GRENADA        CLEAR     59  55  88 W5        29.84S
GREENWOOD      CLEAR     61  57  87 SW3       29.85S
STARKVILLE     PTSUNNY   63  61  94 W5        29.84S
GOLDEN TRIANGL CLOUDY    64  61  88 W5        29.86S


...SOUTHEAST MISSOURI...

CITY           SKY/WX    TMP DP  RH WIND       PRES   REMARKS
WEST PLAINS    PTCLDY    51  44  77 NW10G20   29.84R
POPLAR BLUFF   CLOUDY    59  52  77 NW17G25   29.75R
CAPE GIRARDEAU LGT RAIN  58  56  93 W8        29.71S


...NORTHWEST ALABAMA...

CITY           SKY/WX    TMP DP  RH WIND       PRES   REMARKS
MUSCLE SHOALS  CLOUDY    67  61  81 SW9       29.76S


...MIDDLE TENNESSEE...

CITY           SKY/WX    TMP DP  RH WIND       PRES   REMARKS
NASHVILLE      CLOUDY    63  61  93 S7        29.70S
CLARKSVILLE    CLOUDY    64  61  90 SW8       29.67R
COLUMBIA       CLOUDY    64  64 100 S6        29.70F


...WESTERN KENTUCKY...

CITY           SKY/WX    TMP DP  RH WIND       PRES   REMARKS
PADUCAH        MOCLDY    59  54  83 W12       29.69R


...CENTRAL ARKANSAS...

CITY           SKY/WX    TMP DP  RH WIND       PRES   REMARKS
LITTLE ROCK    CLEAR     59  48  67 W9        29.88R


SKY/WX REPORTED AS FAIR MEANS FEW OR NO CLOUDS BELOW
12 THOUSAND FEET.




USA.gov is the U.S. government's official web portal to all federal, state and local government web resources and services.